Location: Thatcham
(51.4000°N, 1.2667°W)
Time: 17:33:37
(UTC+00:00)

Daily predictions for brighter satellites

Satellite Brightness Start Highest point End
(mag) Time Altitude Azimuth Time Altitude Azimuth Time Altitude Azimuth
Terra 2.4 21:03:45 10° SE 21:08:18 47° ENE 21:12:53 10° N
USA 267 3.7 21:04:04 10° ENE 21:10:07 38° SE 21:16:07 10° SSW
Cosmos 1455 3.2 21:07:21 10° N 21:10:48 33° ENE 21:14:15 10° SE
Cosmos 2369 Rocket 3.8 21:07:00 10° NW 21:11:49 30° WSW 21:16:38 10° SSW
Meteor 1-24 Rocket 4.1 21:08:04 10° SSE 21:13:03 43° E 21:18:07 10° NNE
Cosmos 2315 Rocket 4.2 21:08:03 10° S 21:14:15 58° E 21:20:26 10° NNE
NOSS 2-1 (C) 4.4 21:11:26 10° NW 21:15:25 50° NE 21:20:51 10° ESE
Spot 2 Rocket 3.6 21:16:22 10° SSE 21:21:28 86° ENE 21:26:36 10° NNW
NOSS 2-1 (D) 4.2 21:21:43 10° NW 21:25:49 57° NE 21:31:27 10° ESE
CZ-4B R/B 2.9 21:23:42 10° N 21:26:22 33° WNW 21:29:00 10° SW
Lacrosse 5 rocket 1.2 21:23:29 10° WNW 21:27:18 85° NNE 21:31:22 10° ESE
Cosmos 1709 Rocket 4.1 21:21:44 10° NNW 21:27:55 83° W 21:34:09 10° S
ARIANE 5 R/B 3.0 21:23:53 10° SE 21:28:14 53° ENE 21:32:36 10° N
SPOT 3 Rocket 4.1 21:24:18 10° S 21:29:23 58° WSW 21:34:33 10° NNW
Cosmos 2074 Rocket 4.5 21:29:59 10° N 21:36:06 49° ENE 21:42:02 11° SSE
ATLAS 2AS CENTAUR R/B 2.8 21:30:45 10° NW 21:38:03 81° NE 21:44:48 10° SE
Cosmos 1624 Rocket 4.2 21:35:18 10° S 21:40:23 54° ESE 21:45:29 10° NNE
Cosmos 1656 4.3 21:36:12 10° NNW 21:41:29 48° NE 21:46:47 10° SE
Cosmos 1190 Rocket 4.3 21:37:02 10° NNW 21:42:21 69° WSW 21:47:37 10° SSE
USA 234 3.3 21:39:40 10° ESE 21:46:15 85° SSW 21:52:52 10° WNW
Cosmos 1833 Rocket 4.5 21:44:47 10° SE 21:47:37 14° E 21:50:29 10° ENE
Cosmos 407 Rocket 4.4 21:44:30 10° NW 21:49:23 42° WSW 21:54:13 10° S
Cosmos 1455 Rocket 3.9 21:45:28 10° NNW 21:49:40 48° W 21:53:50 10° SSW
Cosmos 2154 Rocket 4.5 21:49:22 10° N 21:55:27 49° ENE 22:00:52 13° SE
SPOT 5 3.5 21:52:38 10° S 21:56:59 46° W 22:01:14 10° NNW
Cosmos 1271 Rocket 2.8 21:53:41 10° NNW 21:57:42 82° WSW 22:01:15 13° S
Cosmos 2056 Rocket 3.6 21:54:42 10° SSW 22:00:03 76° ESE 22:05:30 10° NNE
Meteor 2-5 Rocket 4.0 21:56:40 10° SSW 22:02:10 71° WNW 22:07:45 10° N
Cosmos 1025 Rocket 3.5 21:58:55 10° SSW 22:03:07 59° WNW 22:07:23 10° N
Cosmos 2344 4.5 21:58:16 10° NW 22:06:32 64° NE 22:17:46 10° ESE
Cosmos 676 Rocket 4.2 22:03:32 10° NNW 22:08:50 68° WSW 22:13:24 14° S
ERS-1 Rocket 3.8 22:05:05 10° S 22:09:54 45° W 22:14:45 10° NNW
USA 32 4.3 22:05:54 10° SSW 22:11:06 68° W 22:16:21 10° N
Cosmos 1420 Rocket 4.0 22:07:05 10° SSW 22:12:19 78° ESE 22:17:38 10° NNE
Cosmos 1607 3.9 22:11:20 10° SSW 22:17:31 70° SE 22:23:40 10° NE
Cosmos 1536 Rocket 3.5 22:13:47 13° S 22:17:37 71° E 22:21:57 10° NNE
CZ-2C R/B 4.1 22:13:32 10° N 22:18:10 64° WNW 22:22:40 10° SSW
Lacrosse 5 1.9 22:18:41 10° WNW 22:23:46 68° SW 22:27:56 15° SE
Cosmos 1606 Rocket 4.0 22:20:11 10° N 22:24:23 49° ENE 22:27:26 18° SE
NOSS 2-1 (E) 4.1 22:20:01 10° NW 22:24:26 71° SW 22:29:25 16° SSE
SAR-Lupe-4 3.6 22:23:11 10° NNE 22:26:45 63° ESE 22:29:20 17° S
Cosmos 2184 Rocket 4.1 22:22:20 10° NNW 22:28:31 80° W 22:33:50 15° S
Cosmos 724 4.4 22:25:22 10° SSW 22:30:59 53° ESE 22:36:37 10° NE
Tiangong 3.4 22:31:57 10° SW 22:32:27 12° SSW 22:32:27 12° SSW
Cosmos 1850 Rocket 4.0 22:29:54 10° NNW 22:35:10 87° ENE 22:39:02 18° SSE
Lacrosse 4 Rocket 4.3 22:33:20 10° W 22:36:27 20° NW 22:39:34 10° NNE
Cosmos 2228 3.0 22:33:57 10° NNW 22:38:13 84° W 22:41:10 19° S
Cosmos 1328 4.5 22:37:11 20° SSE 22:39:33 40° E 22:43:20 10° NNE
Meteor 1-21 Rocket 4.3 22:35:48 16° S 22:40:11 63° E 22:45:45 10° NNE
FALCON 9 DEB 3.0 22:38:21 10° WSW 22:41:38 87° NNW 22:44:55 10° ENE
Cosmos 1703 3.2 22:38:48 16° S 22:41:46 87° W 22:45:39 10° N
SAR-Lupe-1 4.1 22:38:43 10° NNE 22:42:18 76° WNW 22:45:12 15° SSW
Cosmos 1408 4.1 22:43:33 17° ESE 22:44:57 21° E 22:47:37 10° NE
Cosmos 1455 4.1 22:43:04 10° NW 22:46:08 24° W 22:49:12 10° SW
Terra 3.5 22:42:17 10° SSW 22:46:16 26° W 22:50:18 10° NW
Cosmos 1825 4.4 22:46:54 10° ESE 22:48:32 13° E 22:50:20 10° NE
SL-8 R/B 3.7 22:44:34 10° W 22:49:20 62° S 22:54:06 10° ESE
ALOS 2 3.4 22:46:37 17° SE 22:49:41 43° ENE 22:53:52 10° N
Cosmos 1726 Rocket 3.6 22:46:33 10° N 22:50:53 69° ENE 22:53:36 22° SSE
USA 267 3.3 22:47:01 10° ENE 22:53:36 88° NNW 23:00:10 10° WSW
Cosmos 1980 Rocket 3.0 22:48:28 10° NNW 22:53:59 47° NE 22:59:14 11° ESE
RESURS DK-1 2.3 22:52:19 10° NNW 22:56:29 89° SW 22:59:03 22° SSE
Cosmos 1697 Rocket 2.7 22:52:51 10° NNW 22:58:32 82° ENE 23:02:42 19° SSE
Cosmos 1331 Rocket 4.3 22:57:21 19° S 23:00:55 52° ESE 23:06:04 10° NNE
Cosmos 1452 Rocket 3.5 22:57:19 13° SSW 23:01:59 84° ESE 23:07:17 10° NNE
Lacrosse 5 rocket 2.8 23:02:56 10° W 23:06:00 22° SW 23:07:17 19° SSW
Spot 4 3.8 23:04:25 22° SSE 23:07:34 85° WSW 23:12:23 10° NNW
ASTEX 1 3.5 23:02:50 10° N 23:07:51 78° W 23:11:36 18° SSW
ERS-2 3.8 23:05:25 10° NE 23:08:12 21° E 23:09:26 18° ESE
Cosmos 1892 3.6 23:06:34 23° SE 23:08:13 34° E 23:11:39 10° NNE
USA 276 3.7 23:10:14 18° ESE 23:10:14 18° ESE 23:11:19 10° E
Cosmos 2084 Rocket 4.3 23:05:21 10° NW 23:09:04 43° NE 23:12:53 10° ESE
Cosmos 2084 3.4 23:05:18 10° SW 23:09:08 72° NW 23:13:03 10° NE
ADEOS Rocket 3.6 23:05:35 17° SSE 23:11:06 72° ENE 23:18:40 10° NNW
Meteor 2-1 Rocket 4.4 23:07:44 10° NNW 23:13:11 62° W 23:17:01 20° S
Cosmos 2058 Rocket 3.1 23:09:43 10° N 23:14:06 71° ENE 23:16:43 24° SSE
Cosmos 1110 Rocket 4.0 23:15:12 18° SSW 23:19:07 77° ESE 23:24:26 10° NNE
Cosmos 2181 Rocket 4.3 23:15:18 20° SSE 23:19:23 52° E 23:25:21 10° NNE
GP-B 3.2 23:15:48 10° N 23:20:15 72° W 23:23:05 22° SSW
Cosmos 2360 4.3 23:15:27 10° NNW 23:21:11 74° WSW 23:25:00 22° SSE
Cosmos 2322 Rocket 4.3 23:18:11 10° NNW 23:22:41 23° NE 23:27:11 10° E
Cosmos 1892 Rocket 3.5 23:22:22 23° S 23:25:05 85° E 23:29:31 10° NNE
ATLAS 2AS CENTAUR R/B 3.8 23:22:25 10° WNW 23:28:16 29° WSW 23:32:16 16° SSW
USA 234 4.1 23:26:12 20° S 23:29:51 34° SW 23:35:42 10° WNW
Cosmos 1833 Rocket 2.6 23:26:16 17° SSW 23:30:36 77° ESE 23:36:14 10° NNE
BREEZE-M DEB (TANK) 3.6 23:35:55 10° W 23:39:04 72° S 23:50:44 10° E
Okean 1-7 Rocket 3.9 23:39:49 25° SSE 23:42:08 54° E 23:46:30 10° NNE
Cosmos 1626 Rocket 4.0 23:42:03 25° SSE 23:44:14 48° E 23:48:25 10° NNE
Cosmos 2082 Rocket 2.7 23:41:32 23° S 23:44:46 46° ESE 23:50:12 10° NE
Cosmos 1821 Rocket 4.5 23:40:03 10° N 23:46:15 54° ENE 23:50:56 17° SSE
Meteor 1-27 4.2 23:42:08 10° NNW 23:47:45 87° ENE 23:51:21 23° SSE
Cosmos 1869 3.2 23:45:09 10° N 23:49:01 78° E 23:50:55 29° SSE
Cosmos-2242 3.8 23:50:44 10° N 23:54:50 43° ENE 23:57:29 19° SE
BREEZE-M DEB (TANK) 3.9 23:46:28 10° SW 23:56:01 45° SSE 23:59:20 10° E
